Other Public Products
Issued by NWS Grand Forks, ND

Home | Current Version | Previous Version | Text Only | Print | Product List | Glossary Off
Versions: 1 2 3 4 5 6 7 8 9 10 11 12 13 14 15 16 17 18 19 20 21 22 23 24 25 26 27 28 29 30 31 32 33 34 35 36 37 38 39 40 41 42 43 44 45 46 47 48 49 50

000
FPUS83 KFGF 200731
OPUFGF
PRAIRIE TO PINES WEATHER ROUNDUP
NATIONAL WEATHER SERVICE EASTERN NORTH DAKOTA/GRAND FORKS ND
200 AM CDT THU JUL 20 2017

 **SATELLITE DATA USED TO AUGMENT SKY COVER AT AUTOMATED STATIONS**
 *****  WEATHER ACROSS EASTERN NORTH DAKOTA  *****

CITY           SKY/WX    TMP DP  RH WIND       PRES   REMARKS
GRAND FORKS    FAIR      63  63 100 W8        29.94R
GRAND FORKS AF FAIR      59  59 100 NW3       29.95S
GRAND CITY NWS NOT AVBL
BUXTON         NOT AVBL
DEVILS LAKE    FOG       57  57 100 N3        29.99S VSB 1/2
FARGO          FAIR      68  66  93 NW6       29.94S
WAHPETON ARPT  PTSUNNY   63  61  94 W3        29.94S VSB<1/4
$$

 *****  WEATHER ACROSS CENTRAL AND WESTERN NORTH DAKOTA  *****

CITY           SKY/WX    TMP DP  RH WIND       PRES   REMARKS
JAMESTOWN      FAIR      66  62  87 W3        29.98S
BISMARCK       FAIR      68  62  81 CALM      29.99S
MINOT          MOCLDY    68  57  68 NE8       29.99F
MINOT AFB      LGT RAIN  64  61  88 E6        29.98F
GARRISON         N/A     65  62  90 E5        29.96F
WILLISTON        N/A     72  57  59 MISG      29.96S
DICKINSON      FAIR      65  58  78 S10       29.99F
HETTINGER      FAIR      66  56  70 SE3       30.05S
$$

 *****  OTHER OBSERVATIONS NORTHEAST NORTH DAKOTA  *****

CITY           SKY/WX    TMP DP  RH WIND       PRES   REMARKS
WALHALLA       NOT AVBL
LANGDON        FAIR      55  55 100 W5        29.99S
CAVALIER       FAIR      59  57  94 W7        29.94S
GRAFTON        FAIR      63  63 100 W8        29.96S
CANDO          NOT AVBL
FORT TOTTEN      N/A     63  63  99 CALM      29.95S
ROLLA            N/A     57  57 100 NW7       30.01S
RUGBY          NOT AVBL
 ***** THE ABOVE OBSERVATIONS ARE NON NWS ARE NOT QUALITY
        CONTROLLED AND MAY MIS-REPORT RAIN FOR SNOW...
$$

 *****  OTHER OBSERVATIONS SOUTHEAST NORTH DAKOTA *****

CITY           SKY/WX    TMP DP  RH WIND       PRES   REMARKS
COOPERSTOWN    FAIR      57  57 100 CALM      29.98F FOG
VALLEY CITY    PTSUNNY   66  66 100 CALM      29.99S
OAKES          NOT AVBL
GWINNER        SUNNY     63  63 100 CALM      29.95F
SHEYENNE NWR     N/A     66  66 100 W2        29.95S
BUFFALO          N/A     68  64  87 N14G30      N/A
WYNDMERE       NOT AVBL
 ***** THE ABOVE OBSERVATIONS ARE NON NWS ARE NOT QUALITY
       CONTROLLED AND MAY MIS-REPORT RAIN FOR SNOW...
$$

  *****  WEATHER ACROSS NORTHERN MINNESOTA  *****

CITY           SKY/WX    TMP DP  RH WIND       PRES   REMARKS
FLAG ISLAND    FAIR      66  63  88 W9        29.89R
WARROAD        FAIR      64  61  88 W7        29.91S
ROSEAU         FAIR      66  61  82 W6        29.92S
HALLOCK        FAIR      61  59  94 NW6       29.93S
THF RVR FALLS  FOG       59  59 100 W5        29.95S VSB 1/2
HALSTAD          N/A     62  63 100 NW5         N/A
FOSSTON        FAIR      61  59  94 CALM      29.96S FOG
BAUDETTE       FAIR      65  63  93 W5        29.90S
WASKISH        FAIR      70  66  88 W7        29.91S
CROOKSTON      MOCLDY    61  59  94 W5        29.95S FOG
$$
  *****  WEATHER ACROSS CENTRAL AND WEST MINNESOTA  *****

CITY           SKY/WX    TMP DP  RH WIND       PRES   REMARKS
BEMIDJI        FAIR      65  64  95 W8        29.94R
PARK RAPIDS    FAIR      62  59  90 CALM      29.94F FOG
WADENA         FAIR      63  63 100 CALM      29.94S
DETROIT LAKES  FAIR      66  63  88 NW6       29.96F
MOORHEAD       FAIR      63  61  94 CALM      29.95S
FERGUS FALLS   FAIR      66  66 100 CALM      29.94S
ELBOW LAKE       N/A     64  64 100 SW3       29.96R FOG
MORRIS MN      FOG       66  64  94 NW3       29.94S VSB 1/2
STAPLES        FAIR      61  59  94 CALM      29.94S FOG
WHEATON        FAIR      64  63  94 CALM      29.96F
$$
  *****  WEATHER ELSEWHERE ACROSS MINNESOTA  *****

CITY           SKY/WX    TMP DP  RH WIND       PRES   REMARKS
DULUTH         FAIR      59  56  89 SW5       29.93F
INTRNTL FALLS  FAIR      62  58  86 W6        29.89S
ELY            FAIR      57  55  94 CALM      29.91F
CLOQUET        FAIR      59  55  88 CALM      29.93F
BRAINERD       FAIR      59  59 100 CALM      29.93F FOG
HIBBING        FAIR      53  53 100 CALM      29.92F FOG
ALEXANDRIA     FAIR      64  63  96 SW6       29.97F
SAINT CLOUD    FOG       62  62 100 CALM      29.95R VSB 3/4
MINNEAPOLIS    MOCLDY    70  68  93 W3        29.92F FOG
$$

  *****  WEATHER ACROSS SOUTH DAKOTA  *****

CITY           SKY/WX    TMP DP  RH WIND       PRES   REMARKS
SIOUX FALLS    FAIR      72  71  97 N8        29.94R
BROOKINGS      FAIR      71  69  93 NE6       29.96S
WATERTOWN      FAIR      67  67 100 N3        29.97S
HURON          FAIR      73  71  93 N7        29.95R
SISSETON         N/A     64  63  96 S3        29.95S
ABERDEEN       FAIR      67  67 100 N5        29.96F
MITCHELL       FAIR      75  74  96 N7        29.96R
PIERRE         FAIR      74  70  87 NE9       29.96F
MOBRIDGE       FAIR      69  65  86 CALM      29.98F
RAPID CITY     FAIR      71  60  68 NE8       30.09R
$$

  *****  SOME WEATHER IN NEARBY STATES *****

CITY           SKY/WX    TMP DP  RH WIND       PRES   REMARKS
GLASGOW MT     NOT AVBL
GREAT FALLS MT FAIR      70  32  24 NE12      29.98S
CHEYENNE WY    MOCLDY    68  54  60 N9        30.28S
SCOTTSBLUFF NE FAIR      68  63  84 N14       30.09F
OMAHA NE       CLOUDY    84  72  67 S9        29.94S
DES MOINES IA  CLOUDY    84  73  69 S13       29.92S HX  90
DAVENPORT IA   FAIR      73  69  87 E7        30.01F
CHICAGO IL     CLOUDY    70  67  90 SW5       30.00R
EAU CLAIRE WI  CLOUDY    68  67  96 S5        29.92R
LA CROSSE WI   TSTM      71  68  90 N16G25    29.98R
$$

  *****  SOME NATIONAL WEATHER *****

CITY           SKY/WX    TMP DP  RH WIND       PRES   REMARKS
LA GUARDIA NY  MOCLDY    80  73  79 CALM      29.96F
RALEIGH NC     FAIR      74  70  87 CALM      30.06F
ATLANTA GA     FAIR      77  71  82 W3        30.10F
NEW ORLEANS LA FAIR      78  76  93 CALM      30.09S
OKLAHOMA CITY  FAIR      79  69  71 S8        30.09R
ALBUQUERQUE NM FAIR      71  54  54 SE3       30.28R
SALT LAKE CITY MOCLDY    80  58  46 S17       30.04S
LOS ANGELES CA FAIR      68  65  90 SW3       29.98S
BOISE ID       FAIR      74  36  25 S5        29.89S
SEATTLE WA     MOCLDY    62  54  74 SW9       30.05R
$$

*** WEATHER ACROSS MANITOBA...SASKATCHEWAN AND ONTARIO ***
                ***ONTARIO***

CITY           SKY/WX    TMP DP  RH WIND       PRES   REMARKS
GERALDTON      MOCLDY    57  55  94 S6        29.83F
THUNDER BAY    PTCLDY    57  55  94 VRB2      29.88F
SIOUX LOOKOUT  CLEAR     64  59  82 W6        29.84S
TORONTO        MOCLDY    64  57  77 NW7       30.00F
BIG TROUT LK   CLEAR     55  55 100 W8        29.71F
PICKLE LAKE    NOT AVBL
DRYDEN         CLEAR     61  59  94 SW8       29.86S
KENORA         PTCLDY    64  63  94 W6        29.89R
$$
                *** MANITOBA***

CITY           SKY/WX    TMP DP  RH WIND       PRES   REMARKS
BRANDON        PTCLDY    48  46  93 W6        29.98R
DAUPHIN        CLEAR     50  48  93 W8        29.95S
ISLAND LAKE    NOT AVBL
PILOT MOUND      N/A     57  54  88 NW2         N/A
THE PAS        PTCLDY    61  50  67 W12       29.85R
THOMPSON       PTCLDY    46  45  93 NW5       29.77R
WINNIPEG       CLEAR     57  55  94 N6        29.94R
LYNN LAKE      CLEAR     48  45  87 NW6       29.83R
CHURCHILL      LGT RAIN  50  43  76 NW17G24   29.60R
GILLAM         MOCLDY    54  45  71 NW13      29.70R
$$
                ***SASKATCHEWAN***

CITY           SKY/WX    TMP DP  RH WIND       PRES   REMARKS
ESTEVAN        PTCLDY    55  54  94 NE6       30.00S
KINDERSLEY     CLEAR     57  46  67 S7        29.94S
LLOYDMINSTER   CLEAR     54  54 100 W8        29.93R
PRINCE ALBERT  CLOUDY    52  50  93 CALM      29.92R
REGINA         PTCLDY    55  50  82 SE7       30.00S
YORKTON        CLEAR     55  50  82 S6        29.96S


USA.gov is the U.S. government's official web portal to all federal, state and local government web resources and services.